Tracking 27428 objects as of 1-Jun-2023
HD Live streaming from Space Station
objects crossing your sky now

NOAA 16 DEB

Track NOAA 16 DEB now!
10-day predictions


NORAD ID: 41067
Int'l Code: 2000-055AA
Perigee: 849.9 km
Apogee: 855.6 km
Inclination: 98.6 °
Period: 101.8 minutes
Semi major axis: 7223 km
RCS: Unknown
Launch date: September 21, 2000
Source: United States (US)
Launch site: AIR FORCE WESTERN TEST RANGE (AFWTR)

Note: This is SATELLITE DEBRIS
Your satellite tracking list
Your tracking list is empty




NASA's NSSDC Master Catalog

Two Line Element Set (TLE):
1 41067U 00055AA  23151.68758640  .00000986  00000-0  54106-3 0  9996
2 41067  98.6480 209.1487 0003958 217.9031 142.1864 14.14029501387353
Source of the keplerian elements: AFSPC